Regional Weather Roundup
Issued by NWS Jackson, KY

Home | Current Version | Previous Version | Graphics & Text | Print | Product List | Glossary On
Versions: 1 2 3 4 5 6 7 8 9 10 11 12 13 14 15 16 17 18 19 20 21 22 23 24 25 26 27 28 29 30 31 32 33 34 35 36 37 38 39 40 41 42 43 44 45 46 47 48 49 50
000
ASUS43 KJKL 301111
RWRJKL

EAST KENTUCKY HOURLY WEATHER ROUNDUP
NATIONAL WEATHER SERVICE JACKSON KY
700 AM EDT SAT AUG 30 2014

NOTE: "FAIR" INDICATES FEW OR NO CLOUDS BELOW 12,000 FEET WITH
NO SIGNIFICANT WEATHER AND/OR OBSTRUCTIONS TO VISIBILITY.

* THESE REPORTS ARE NOT UNDER NWS QUALITY CONTROL AND MAY NOT
  REPORT WEATHER SUCH AS PRECIPITATION AND FOG.

KYZ079-080-083-085-087-088-110-112-115-119-120-301200
...EASTERN KENTUCKY...

CITY           SKY/WX    TMP DP  RH WIND       PRES   REMARKS
JACKSON        CLEAR     72  66  81 VRB3      30.14R
LONDON         CLEAR     70  66  87 SE3       30.14R
SOMERSET*      PTCLDY    70  64  83 CALM      30.12R
MONTICELLO*    CLEAR     73  65  76 SE8       30.12R
WILLIAMSBURG*  CLEAR     68  66  94 SE7       30.14
MIDDLESBORO*   CLEAR     64  64  97 CALM      30.17S
HARLAN APT*    PTSUNNY   66  66 100 MISG      30.18R VSB 1/2
BLACK MTN*       N/A    N/A N/A N/A S2          N/A
PIKEVILLE APT* CLEAR     73  66  78 S6        30.16S
BIG SANDY*     MOSUNNY   74  67  80 S6        30.15R
MOREHEAD APT*  PTSUNNY   72  68  88 S7        30.12F
$$

KYZ035-036-041-042-044-050-067-078-099-301200
...CENTRAL KENTUCKY...

CITY           SKY/WX    TMP DP  RH WIND       PRES   REMARKS
MT STERLING*   PTCLDY    70  68  94 S7        30.12S
FLEMING/MASON* CLEAR     70  68  94 S8        30.10S
DANVILLE*      CLEAR     68  64  88 CALM      30.10S
RICHMOND*      MOCLDY    73  63  68 S6        30.09F
LEXINGTON      CLEAR     72  65  78 SE6       30.08S
FRANKFORT      CLEAR     68  65  90 SE3       30.06S
$$

KYZ091>093-OHZ055-061-077-WVZ005-015-034-035-042-301200
...SOUTHERN OHIO/WEST VIRGINIA...

CITY           SKY/WX    TMP DP  RH WIND       PRES   REMARKS
COVINGTON      MOCLDY    71  65  81 S7        30.06R
COLUMBUS       PTCLDY    71  62  73 CALM      30.07R
DAYTON         PTCLDY    72  68  87 S8        30.06R
WILMINGTON     CLEAR     69  67  93 S6        30.07R
HUNTINGTON     PTCLDY    72  69  90 S8        30.10S
CHARLESTON     MOCLDY    70  69  97 CALM      30.13R
PINEVILLE*     CLEAR     66  66 100 MISG      30.26R FOG
BECKLEY        PTCLDY    68  63  84 SE7       30.25R
BLUEFIELD      MOCLDY    72  63  73 S8        30.28R
$$

VAZ002-007-008-TNZ017-027-036-066-071-301200
...SOUTHWEST VIRGINIA/EAST TENNESSEE...

CITY           SKY/WX    TMP DP  RH WIND       PRES   REMARKS
WISE*          CLEAR     68  66  94 S3        30.26S
JONESVILLE*      N/A     66  66 100 CALM      30.20R FOG
ABINGDON*      CLEAR     69  67  93 CALM      30.24S
BRISTOL        PTCLDY    65  63  93 CALM      30.20R
KNOXVILLE      PTCLDY    69  66  90 N5        30.13R
OAK RIDGE      MOCLDY    68  66  93 CALM      30.15R
CROSSVILLE     MOCLDY    72  60  66 CALM      30.17R
NASHVILLE      MOCLDY    70  64  81 S3        30.06R
$$

...KEY TO REMARKS...
VSB - VISIBILITY IN MILES
WCI - WIND CHILL INDEX
HX  - HEAT INDEX

$$



USA.gov is the U.S. government's official web portal to all federal, state and local government web resources and services.